Location: Erdweis
(48.5167°N, 15.3500°E)
Time: 15:22:04
(UTC+00:00)

ATLAS 2AS CENTAUR R/B - Pass Details

Date: 18 September 2020
Orbit: 939 x 1273 km, 63.7° (Epoch: 19 October)

Event Time Altitude Azimuth Distance (km) Brightness Sun altitude
Exits shadow 22:59:05 10° 278° (W) 3,267 5.2 -40.1°
Maximum altitude 23:06:02 32° 339° (NNW) 2,023 4.4 -40.0°
Drops below altitude 10° 23:12:47 10° 41° (NE) 3,164 5.7 -39.9°
Sets 23:15:52 0° 51° (NE) 4,084 6.3 -39.8°
